Location: Eschentzwiller
(47.7125°N, 7.3981°E)
Time: 03:19:53
(UTC+00:00)

USA 215 - Pass Details

Date: 27 October 2020
Orbit: 1102 x 1106 km, 123.0° (Epoch: 28 November)

Event Time Altitude Azimuth Distance (km) Brightness Sun altitude
Exits shadow 17:51:36 21° 71° (ENE) 2,248 4.3 -15.9°
Maximum altitude 17:55:35 43° 12° (NNE) 1,497 3.9 -16.6°
Drops below altitude 10° 18:01:41 10° 303° (WNW) 2,966 6.4 -17.6°
Sets 18:04:17 0° 298° (WNW) 3,925 7.3 -18.1°
